STARLINK-1991, 47587

Orbit data source: Space-Track

STARLINK-1991, 47587 is a payload satellite owned by SpaceX/Seattle (US) in LEO that was launched on Thu, 04 Feb 2021 UTC via an FALCON 9 launch vehicle from the Air Force Eastern Test Range (AFETR). Payload-class satellites include a variety of spacecraft equipped with specific instruments for various scientific and technological missions. These include communications satellites like Starlink; space stations such as the ISS; scientific satellites like the Hubble; Earth observation satellites from companies like Planet Labs, Umbra, and HawkEye 360; GPS; miniature CubeSats for education and research; and military/defense satellites.

Not visible in the next 10 days
Identifier
47587, 2021-009AR
Orbit
LEO
Country
Flag of USUS
Related business
Manufacturer
SpaceX/Seattle
Mission
Partially operational Commercial Communications
Bus & Motor
STARLINK, Unknown motor
Mass
260 kg wet, ~248 kg dry
Launch date (UTC)
2021-02-04 (5 years ago)
Launch vehicle
FALCON 9
Launch site
Air Force Eastern Test Range (AFETR)
Object type
Payload
Rocket body
Debris
Shape & HBR
Box + 1 Pan, 10.1 m
Radar Cross Section
13.562 m², Large (>1 m²)

Expand to show TLE details & history
Last TLE update: 2 days ago

TLE from 2 days ago
0 STARLINK-1991
1 47587U 21009AR  26171.46070456  .00735697  29685-3  82941-3 0  9999
2 47587  53.0284 176.0569 0008513  17.9250 342.2081 16.08656932297745
Epoch: 2026-06-20T11:03Z
TLE epoch observation values (Epoch: 2026-06-20T11:03:24.873Z)
Latitude
-0.00009°
Longitude
101.52819°
Altitude
246.073 km
Speed
7.764 km/s
True Right ascension
11h 44m 13s
True Declination
0° 00' 00"
Sunlit
Object was in daylight at epoch
Visualization orbit readout
Latitude
Unknown
Longitude
Unknown
Altitude
Unknown
Speed
Unknown
Apparent Right ascension
Unknown
Apparent Declination
Unknown
Sunlit
N/A
Visualization observer readout
Local Sidereal Time
21:36:44
Azimuth
Unknown
Elevation
Unknown
Doppler factor
Unknown
Orbital elements
Apogee altitude
256.46 km
Perigee altitude
245.174 km
Semi-major axis
6,628.954 km
Eccentricity
0.00085
Inclination
53.0284°
RAAN
176.0569°
Arg. of periapsis
17.925°
True anomaly
342.17826°
Mean anomaly
342.2081°
Eccentric anomaly
342.19318°
Mean motion
4.02139 °/min
Orbital period
89.52 mins
BSTAR
0.00082941
Loading maneuver chart data...
Computing Atmospheric mass density...

Documentation

Showing up to 5 results
|